Location: Newark
(34.3481°N, 134.0494°E)
Time: 23:32:42
(UTC+00:00)

Vanguard 3 - Pass Details

Date: 26 January 2020
Orbit: 508 x 3263 km, 33.3° (Epoch: 19 February)

Event Time Altitude Azimuth Distance (km) Brightness Sun altitude
Rises 13:02:05 0° 283° (WNW) 7,062 12.4 -56.4°
Reaches altitude 10° 13:07:15 10° 281° (W) 5,815 11.8 -57.4°
Enters shadow 13:17:30 40° 268° (W) 3,291 10.2 -59.4°
